TimeCST,TemperatureF,Dew PointF,Humidity,Sea Level PressureIn,VisibilityMPH,Wind Direction,Wind SpeedMPH,Gust SpeedMPH,PrecipitationIn,Events,Conditions,WindDirDegrees,DateUTC
12:52 AM,12.9,3.0,65,30.40,10.0,NNW,15.0,-,N/A,,Clear,330,2013-01-20 06:52:00
1:52 AM,12.0,3.9,70,30.41,10.0,NNW,8.1,-,N/A,,Clear,330,2013-01-20 07:52:00
2:52 AM,10.9,3.0,70,30.40,10.0,North,9.2,-,N/A,,Clear,350,2013-01-20 08:52:00
3:52 AM,12.0,3.0,67,30.40,10.0,NW,6.9,-,N/A,,Partly Cloudy,320,2013-01-20 09:52:00
4:52 AM,10.9,3.0,70,30.40,10.0,WNW,6.9,-,N/A,,Scattered Clouds,300,2013-01-20 10:52:00
5:52 AM,10.9,1.9,67,30.41,10.0,NNW,6.9,-,N/A,,Overcast,340,2013-01-20 11:52:00
6:52 AM,10.9,1.9,67,30.41,10.0,North,6.9,-,N/A,,Overcast,350,2013-01-20 12:52:00
7:52 AM,12.0,1.9,64,30.43,10.0,North,6.9,-,N/A,,Overcast,360,2013-01-20 13:52:00
8:52 AM,12.0,1.0,61,30.45,10.0,NNE,4.6,-,N/A,,Overcast,30,2013-01-20 14:52:00
9:34 AM,12.2,3.2,67,30.40,2.0,Calm,Calm,-,0.00,Snow,Light Snow,0,2013-01-20 15:34:00
9:44 AM,12.2,5.0,73,30.41,1.5,NNW,3.5,-,0.00,Snow,Light Snow,340,2013-01-20 15:44:00
9:52 AM,12.0,6.1,77,30.48,1.5,NNW,4.6,-,0.00,Snow,Light Snow,340,2013-01-20 15:52:00
10:37 AM,12.2,8.6,85,30.43,1.5,NNW,5.8,-,0.02,Snow,Light Snow,340,2013-01-20 16:37:00
10:52 AM,12.0,8.1,84,30.51,1.5,NW,5.8,-,0.03,Snow,Light Snow,310,2013-01-20 16:52:00
10:59 AM,12.2,8.6,85,30.44,0.8,NW,6.9,-,0.00,Snow,Light Snow,310,2013-01-20 16:59:00
11:28 AM,12.2,8.6,85,30.44,1.0,NW,8.1,-,0.01,Snow,Light Snow,320,2013-01-20 17:28:00
11:52 AM,12.0,8.1,84,30.51,1.2,NW,8.1,-,0.02,Snow,Light Snow,310,2013-01-20 17:52:00
12:08 PM,12.2,8.6,85,30.43,2.5,NNW,9.2,-,0.00,Snow,Light Snow,330,2013-01-20 18:08:00
12:20 PM,12.2,6.8,79,30.43,4.0,NW,9.2,-,0.01,Snow,Light Snow,320,2013-01-20 18:20:00
12:42 PM,12.2,6.8,79,30.42,7.0,North,10.4,-,0.01,Snow,Light Snow,350,2013-01-20 18:42:00
12:52 PM,12.9,7.0,77,30.48,8.0,NNW,11.5,-,0.01,Snow,Light Snow,340,2013-01-20 18:52:00
1:52 PM,12.9,7.0,77,30.48,9.0,NNW,13.8,-,0.00,,Overcast,330,2013-01-20 19:52:00
2:52 PM,14.0,8.1,77,30.48,8.0,NNW,13.8,-,0.00,Snow,Light Snow,340,2013-01-20 20:52:00
3:52 PM,14.0,7.0,74,30.47,10.0,NNW,12.7,-,0.00,,Scattered Clouds,330,2013-01-20 21:52:00
4:52 PM,12.0,5.0,73,30.47,10.0,NW,12.7,-,0.00,,Clear,320,2013-01-20 22:52:00
5:52 PM,9.0,3.0,77,30.48,10.0,NNW,9.2,-,N/A,,Scattered Clouds,330,2013-01-20 23:52:00
6:49 PM,10.4,3.2,73,30.42,10.0,NW,6.9,-,N/A,,Mostly Cloudy,320,2013-01-21 00:49:00
6:52 PM,10.0,5.0,80,30.49,10.0,NNW,6.9,-,N/A,,Mostly Cloudy,330,2013-01-21 00:52:00
7:27 PM,6.8,1.4,79,30.41,10.0,West,4.6,-,N/A,,Scattered Clouds,260,2013-01-21 01:27:00
7:52 PM,5.0,1.9,87,30.48,10.0,NNW,3.5,-,N/A,,Partly Cloudy,330,2013-01-21 01:52:00
8:52 PM,12.9,7.0,77,30.46,10.0,NW,10.4,-,N/A,,Overcast,320,2013-01-21 02:52:00
9:52 PM,12.0,3.9,70,30.46,10.0,NW,19.6,-,0.00,,Overcast,320,2013-01-21 03:52:00
10:52 PM,8.1,-0.9,67,30.48,10.0,NNW,19.6,26.5,N/A,,Mostly Cloudy,330,2013-01-21 04:52:00
11:52 PM,6.1,-5.1,60,30.50,10.0,NW,15.0,26.5,N/A,,Clear,320,2013-01-21 05:52:00